DW9945 Weather Reports


time (UTC)temp
F
wind
direction
speed
knots
gust
knots
rain 1hr
in
rain 24hr
in
rain mn
in
humidity
%
barometer
mb
20260506084508 55 123 4.3 8.7 0.00 0.00 0.00 59 1013.9
20260506083508 54 62 2.6 8.7 0.00 0.00 0.00 60 1013.9
20260506083008 54 60 3.5 6.1 0.00 0.00 0.00 60 1014.0
20260506082508 53 104 5.2 8.7 0.00 0.00 0.00 62 1013.9
20260506080508 52 58 1.7 4.3 0.00 0.00 0.00 67 1014.1
20260506073008 50 96 2.6 2.6 0.00 0.00 0.00 69 1014.0
20260506072507 50 41 1.7 4.3 0.00 0.00 0.00 70 1014.1
20260506072008 50 26 2.6 6.1 0.00 0.00 0.00 70 1014.0
20260506071508 49 47 2.6 7.0 0.00 0.00 0.00 72 1014.0
20260506071008 49 11 3.5 7.8 0.00 0.00 0.00 73 1014.0
20260506070508 48 41 2.6 7.0 0.00 0.00 0.00 74 1014.0
20260506062508 46 10 2.6 4.3 0.00 0.00 0.00 79 1013.6
20260506062008 45 14 2.6 6.1 0.00 0.00 0.00 79 1013.6
20260506061508 45 5 3.5 4.3 0.00 0.00 0.00 79 1013.6
20260506061007 45 350 2.6 4.3 0.00 0.00 0.00 79 1013.6
20260506060508 45 15 2.6 6.1 0.00 0.00 0.00 78 1013.6
20260506051008 43 11 4.3 7.0 0.00 0.00 0.00 82 1013.0
20260506050508 43 4 4.3 7.0 0.00 0.00 0.00 81 1013.0
20260506045008 43 13 4.3 7.0 0.00 0.00 0.00 81 1013.0
20260506044508 43 11 4.3 7.8 0.00 0.00 0.00 82 1012.9
20260506044008 43 14 4.3 7.0 0.00 0.00 0.00 82 1012.9
20260506043508 43 7 3.5 7.0 0.00 0.00 0.00 82 1012.9
20260506043007 43 6 2.6 6.1 0.00 0.00 0.00 82 1013.0
20260506042507 43 1 4.3 5.2 0.00 0.00 0.00 82 1013.0
20260506041508 42 20 2.6 6.1 0.00 0.00 0.00 83 1012.9
20260506041007 42 15 2.6 4.3 0.00 0.00 0.00 83 1012.8
20260506040508 42 8 1.7 4.3 0.00 0.00 0.00 83 1012.9
20260506040008 42 352 2.6 4.3 0.00 0.00 0.00 83 1012.9
20260506035508 43 352 2.6 4.3 0.00 0.00 0.00 82 1012.9
20260506035007 43 5 2.6 4.3 0.00 0.00 0.00 82 1012.9
20260506034508 43 21 2.6 4.3 0.00 0.00 0.00 81 1013.0
20260506034008 43 11 2.6 2.6 0.00 0.00 0.00 81 1013.0
20260506033508 43 354 2.6 4.3 0.00 0.00 0.00 82 1013.1
20260506033008 43 24 1.7 2.6 0.00 0.00 0.00 82 1013.1
20260506032007 43 25 1.7 5.2 0.00 0.00 0.00 82 1013.3
20260506031508 43 349 3.5 5.2 0.00 0.00 0.00 81 1013.3
20260506031008 43 6 2.6 4.3 0.00 0.00 0.00 81 1013.2
20260506030507 44 355 3.5 6.1 0.00 0.00 0.00 81 1013.2
20260506030008 43 3 2.6 5.2 0.00 0.00 0.00 81 1013.3
20260506025508 43 1 3.5 6.1 0.00 0.00 0.00 81 1013.3
20260506025008 44 359 3.5 5.2 0.00 0.00 0.00 80 1013.2
20260506024508 44 358 2.6 5.2 0.00 0.00 0.00 79 1013.2
20260506024007 44 0 2.6 4.3 0.00 0.00 0.00 80 1013.2
20260506023008 44 10 2.6 2.6 0.00 0.00 0.00 80 1013.2
20260506022508 44 15 0.0 2.6 0.00 0.00 0.00 79 1013.2
20260506021508 45 4 2.6 4.3 0.00 0.00 0.00 78 1013.1
20260506021007 45 24 2.6 4.3 0.00 0.00 0.00 78 1013.2
20260506020507 45 27 1.7 5.2 0.00 0.00 0.00 78 1013.2
20260506020008 45 25 1.7 4.3 0.00 0.00 0.00 78 1013.1
20260506015007 45 16 2.6 6.1 0.00 0.00 0.00 78 1013.1
20260506014508 44 31 2.6 4.3 0.00 0.00 0.00 79 1013.2
20260506014008 44 32 2.6 2.6 0.00 0.00 0.00 79 1013.2
20260506013508 44 19 1.7 2.6 0.00 0.00 0.00 78 1013.1
20260506013008 45 18 0.9 2.6 0.00 0.00 0.00 78 1013.2
20260506012507 45 26 1.7 2.6 0.00 0.00 0.00 78 1013.3
20260506012007 45 14 0.9 2.6 0.00 0.00 0.00 79 1013.2
20260506011008 44 26 1.7 2.6 0.00 0.00 0.00 79 1013.2
20260506010509 44 15 1.7 2.6 0.00 0.00 0.00 79 1013.3
20260506005518 45 13 2.6 4.3 0.00 0.00 0.00 79 1013.3
20260506005018 45 27 1.7 2.6 0.00 0.00 0.00 78 1013.3
20260506004518 45 16 1.7 2.6 0.00 0.00 0.00 78 1013.3
20260506004018 45 8 0.9 2.6 0.00 0.00 0.00 77 1013.3
20260506003518 46 357 1.7 2.6 0.00 0.00 0.00 76 1013.3
20260506003019 46 34 1.7 2.6 0.00 0.00 0.00 76 1013.4
20260506002018 45 36 0.0 2.6 0.00 0.00 0.00 77 1013.5
20260506001519 45 23 0.0 2.6 0.00 0.00 0.00 77 1013.5
20260506001018 45 23 1.7 2.6 0.00 0.00 0.00 77 1013.6
20260506000522 46 16 1.7 2.6 0.00 0.00 0.00 76 1013.5
20260506000018 46 15 2.6 6.1 0.00 0.00 0.00 75 1013.5
20260505235520 46 11 1.7 2.6 0.00 0.00 0.00 74 1013.5
20260505235007 46 5 1.7 2.6 0.00 0.00 0.00 75 1013.5
20260505234519 46 15 0.0 2.6 0.00 0.00 0.00 75 1013.6
20260505234018 46 357 1.7 2.6 0.00 0.00 0.00 75 1013.7
20260505233518 46 8 1.7 4.3 0.00 0.00 0.00 75 1013.7
20260505232518 47 347 2.6 2.6 0.00 0.00 0.00 73 1013.6
20260505232018 47 5 0.0 0.0 0.00 0.00 0.00 73 1013.6
20260505231518 47 5 0.9 2.6 0.00 0.00 0.00 72 1013.5
20260505231018 48 4 1.7 2.6 0.00 0.00 0.00 70 1013.3
20260505230018 48 76 2.6 7.0 0.00 0.00 0.00 71 1013.4
20260505225518 48 61 2.6 6.1 0.00 0.00 0.00 71 1013.4
20260505225018 48 355 4.3 7.8 0.00 0.00 0.00 72 1013.3
20260505224518 48 357 5.2 7.0 0.00 0.00 0.00 71 1013.3
20260505223519 49 2 3.5 7.0 0.00 0.00 0.00 68 1013.3
20260505223018 50 47 3.5 7.0 0.00 0.00 0.00 66 1013.3
20260505222519 50 28 4.3 7.8 0.00 0.00 0.00 66 1013.2
20260505222007 50 29 5.2 10.4 0.00 0.00 0.00 66 1013.2
20260505221518 50 357 7.0 10.4 0.00 0.00 0.00 67 1013.2
20260505221018 50 1 7.0 13.9 0.00 0.00 0.00 65 1013.2
20260505220519 50 358 8.7 12.2 0.00 0.00 0.00 64 1013.2
20260505220018 51 352 10.4 13.9 0.00 0.00 0.00 63 1013.2
20260505215019 50 342 7.8 10.4 0.00 0.00 0.00 61 1013.1
20260505214519 51 343 6.1 10.4 0.00 0.00 0.00 60 1013.2
20260505214018 51 338 7.0 7.8 0.00 0.00 0.00 59 1013.2
20260505213519 51 326 5.2 7.0 0.00 0.00 0.00 60 1013.2
20260505213018 50 329 3.5 5.2 0.00 0.00 0.00 63 1013.1
20260505212018 50 333 4.3 7.0 0.00 0.00 0.00 60 1013.0
20260505211518 50 340 4.3 4.3 0.00 0.00 0.00 61 1013.1
20260505211018 50 345 4.3 4.3 0.00 0.00 0.00 62 1013.1
20260505210508 50 336 2.6 4.3 0.00 0.00 0.00 61 1013.0
20260505210018 51 346 4.3 4.3 0.00 0.00 0.00 60 1013.1
20260505205518 51 357 1.7 2.6 0.00 0.00 0.00 60 1013.1
20260505205018 51 359 1.7 4.3 0.00 0.00 0.00 60 1013.1
20260505204518 51 15 3.5 4.3 0.00 0.00 0.00 59 1013.1
20260505204018 52 3 2.6 2.6 0.00 0.00 0.00 57 1013.0
20260505203518 52 13 2.6 4.3 0.00 0.00 0.00 57 1013.1
20260505203018 52 8 1.7 4.3 0.00 0.00 0.00 57 1012.9
20260505202518 53 318 4.3 5.2 0.00 0.00 0.00 54 1012.8
20260505201518 54 321 7.0 8.7 0.00 0.00 0.00 50 1012.8
20260505201019 54 322 7.8 8.7 0.00 0.00 0.00 51 1012.8
20260505200018 55 338 5.2 7.0 0.00 0.00 0.00 50 1012.7
20260505195518 55 326 5.2 7.0 0.00 0.00 0.00 48 1012.5
20260505195018 54 332 5.2 7.8 0.00 0.00 0.00 49 1012.5
20260505194018 55 317 4.3 7.0 0.00 0.00 0.00 50 1012.2
20260505193518 55 336 5.2 7.8 0.00 0.00 0.00 49 1012.1
20260505193018 56 329 6.1 7.8 0.00 0.00 0.00 48 1012.3
20260505192518 56 325 7.0 7.8 0.00 0.00 0.00 46 1012.2
20260505192017 56 324 7.0 7.8 0.00 0.00 0.00 45 1012.1
20260505191518 57 319 7.0 8.7 0.00 0.00 0.00 44 1012.1
20260505190519 58 317 6.1 7.8 0.00 0.00 0.00 42 1012.0
20260505190018 58 318 6.1 7.8 0.00 0.00 0.00 41 1011.9
20260505184508 59 311 7.8 12.2 0.00 0.00 0.00 38 1011.7
20260505183519 60 310 9.6 14.8 0.00 0.00 0.00 37 1011.7
20260505183018 61 301 8.7 13.0 0.00 0.00 0.00 37 1011.7
20260505182518 61 291 8.7 13.0 0.00 0.00 0.00 36 1011.6
20260505182017 61 292 7.8 14.8 0.00 0.00 0.00 36 1011.6
20260505181518 61 328 7.8 13.0 0.00 0.00 0.00 38 1011.6
20260505180518 61 319 7.8 14.8 0.00 0.00 0.00 37 1011.6
20260505180018 61 310 11.3 14.8 0.00 0.00 0.00 36 1011.5
20260505175518 62 301 7.8 11.3 0.00 0.00 0.00 36 1011.5
20260505175007 62 319 10.4 14.8 0.00 0.00 0.00 35 1011.5
20260505174007 62 308 9.6 14.8 0.00 0.00 0.00 36 1011.5
20260505172517 62 290 8.7 13.9 0.00 0.00 0.00 33 1011.5
20260505171507 62 295 7.8 13.0 0.00 0.00 0.00 34 1011.4
20260505171018 63 310 10.4 13.9 0.00 0.00 0.00 34 1011.4
20260505170518 62 297 8.7 14.8 0.00 0.00 0.00 34 1011.4
20260505170019 63 289 11.3 17.4 0.00 0.00 0.00 33 1011.3
20260505165518 63 300 10.4 13.9 0.00 0.00 0.00 32 1011.3
20260505165018 63 288 9.6 13.9 0.00 0.00 0.00 32 1011.3
20260505164519 63 303 11.3 14.8 0.00 0.00 0.00 32 1011.3
20260505164020 63 287 11.3 14.8 0.00 0.00 0.00 32 1011.3
20260505163018 64 317 7.8 11.3 0.00 0.00 0.00 33 1011.3
20260505162517 63 292 7.8 13.0 0.00 0.00 0.00 30 1011.3
20260505162017 64 288 8.7 13.9 0.00 0.00 0.00 32 1011.4
20260505161517 63 291 10.4 17.4 0.00 0.00 0.00 33 1011.3
20260505153017 64 303 10.4 15.6 0.00 0.00 0.00 33 1011.2
20260505152517 64 286 8.7 13.9 0.00 0.00 0.00 35 1011.3
20260505152018 64 278 7.8 13.0 0.00 0.00 0.00 33 1011.3
20260505151518 64 282 8.7 15.6 0.00 0.00 0.00 32 1011.4
20260505151018 63 280 6.1 17.4 0.00 0.00 0.00 34 1011.4
20260505150518 63 297 12.2 17.4 0.00 0.00 0.00 34 1011.4
20260505140518 64 260 5.2 13.9 0.00 0.00 0.00 35 1011.7
20260505125017 62 297 6.1 13.0 0.00 0.00 0.00 42 1012.3
20260505124506 62 287 7.8 13.0 0.00 0.00 0.00 40 1012.2
20260505124017 63 268 5.2 12.2 0.00 0.00 0.00 37 1012.2
20260505123506 63 224 7.0 10.4 0.00 0.00 0.00 38 1012.3
20260505122506 63 287 6.1 13.0 0.00 0.00 0.00 40 1012.3
20260505122017 62 279 2.6 10.4 0.00 0.00 0.00 42 1012.2
20260505121517 62 303 8.7 11.3 0.00 0.00 0.00 45 1012.4
20260505120517 62 240 5.2 11.3 0.00 0.00 0.00 40 1012.4
20260505120018 62 245 6.1 13.0 0.00 0.00 0.00 40 1012.5
20260505114517 61 253 7.8 12.2 0.00 0.00 0.00 41 1012.5
20260505114017 61 259 5.2 10.4 0.00 0.00 0.00 43 1012.5
20260505113518 61 233 7.8 11.3 0.00 0.00 0.00 42 1012.5
20260505113018 61 282 4.3 11.3 0.00 0.00 0.00 44 1012.6
20260505112517 61 229 4.3 12.2 0.00 0.00 0.00 44 1012.7
20260505112017 60 235 6.1 10.4 0.00 0.00 0.00 44 1012.8
20260505111518 60 228 7.0 11.3 0.00 0.00 0.00 44 1012.7
20260505111017 61 296 7.8 10.4 0.00 0.00 0.00 43 1012.7
20260505110517 61 199 6.1 10.4 0.00 0.00 0.00 43 1012.7
20260505102019 59 204 4.3 10.4 0.00 0.00 0.00 50 1013.2
20260505101519 59 193 6.1 12.2 0.00 0.00 0.00 50 1013.2
20260505101019 59 202 2.6 10.4 0.00 0.00 0.00 48 1013.1
20260505100519 59 233 4.3 7.8 0.00 0.00 0.00 47 1013.2
20260505100019 59 202 3.5 6.1 0.00 0.00 0.00 49 1013.1
20260505095519 58 87 3.5 7.8 0.00 0.00 0.00 49 1013.1
20260505095008 58 18 0.9 2.6 0.00 0.00 0.00 50 1013.0
20260505094519 58 296 2.6 5.2 0.00 0.00 0.00 51 1013.0
20260505094019 58 290 2.6 5.2 0.00 0.00 0.00 50 1013.0
20260505093508 58 266 2.6 7.0 0.00 0.00 0.00 50 1013.1
20260505093019 58 173 1.7 5.2 0.00 0.00 0.00 52 1013.0
20260505092519 58 67 2.6 5.2 0.00 0.00 0.00 53 1013.1
20260505092019 58 169 2.6 6.1 0.00 0.00 0.00 54 1013.1
20260505091519 58 156 1.7 5.2 0.00 0.00 0.00 55 1013.1
20260505091019 57 194 3.5 6.1 0.00 0.00 0.00 55 1013.1
20260505090519 57 210 1.7 2.6 0.00 0.00 0.00 55 1013.2
20260505090018 57 152 1.7 4.3 0.00 0.00 0.00 55 1013.2
20260505085519 57 63 2.6 5.2 0.00 0.00 0.00 55 1013.2
20260505085018 57 133 2.6 6.1 0.00 0.00 0.00 56 1013.2